sat.trackr.live / text

‹ back to catalog

TEVEL2-5

NORAD 63214 · 2025-052E

PAYLOAD ACTIVE UNKNOWN

§ Identity

Operator
Country
ISRA
Launch date
2025-03-15
Launch site
AFWTR
Launch vehicle
Mass (kg)
RCS (m²)

Purposes: comms

External: N2YO · Heavens-Above · Gunter

§ Orbital elements

Epoch: 2026-09-19T11:18:27.246816Z

Period
93.66 min
Inclination
97.3755°
Eccentricity
0.0004348
Mean motion
15.37454822 rev/d
Perigee alt
450.7 km
Apogee alt
456.6 km
Semi-major
6,831.8 km
B*
3.8435e-4
RAAN
159.0762°
Arg perigee
111.7461°
Mean anomaly
248.4247°
Rev number
8,458

§ Raw data

TEVEL2-51 63214U 25052E   26262.47114869  .00014048  00000+0  38435-3 0  99902 63214  97.3755 159.0762 0004348 111.7461 248.4247 15.37454822 84581

JSON: /api/v1/satellites/63214 · /tle

For live sub-satellite position, see the globe view (requires WebGL).

§ Visibility from observer

Set your observer location to see the next 7 days of passes ≥ 10°. The values pass through the URL so the page stays shareable.

No JS? Fill the form by hand. The geolocation button needs JavaScript.

§ Radio — SatNOGS DB

ModeDescriptionDownlinkUplink
BPSK Mode U - BPSK9k6 G3RUH - Beacon 436.400 MHz
FM Mode V/U - FM Transponder 436.400 MHz 145.970 MHz

2 transmitters · refreshed weekly from db.satnogs.org